Location: Pacheco
(37.9835°N, 122.0752°W)
Time: 07:14:51
(UTC+00:00)

Cosmos 1515 Rocket - Visible Passes

Search period start: 22 July 2024 00:00
Search period end: 01 August 2024 00:00
Orbit: 604 x 625 km, 82.5° (Epoch: 21 July)

Date Brightness Start Highest point End Pass type
(mag) Time Alt. Az. Time Alt. Az. Time Alt. Az.
22 Jul 5.8 09:57:47 10° NNE 10:01:08 21° ENE 10:03:15 15° ESE visible
22 Jul 4.5 11:35:05 10° NNW 11:38:53 29° W 11:40:16 24° WSW visible
23 Jul 4.8 10:13:02 10° N 10:17:09 37° ENE 10:18:26 30° ESE visible
23 Jul 5.2 11:51:52 10° NW 11:54:33 16° W 11:55:26 15° W visible
24 Jul 3.6 10:28:40 10° N 10:33:04 71° E 10:33:38 62° SE visible
25 Jul 6.4 09:09:48 10° ENE 09:10:44 11° ENE 09:11:38 10° E visible
25 Jul 3.6 10:44:33 10° NNW 10:48:53 60° W 10:48:53 60° W visible
26 Jul 5.7 09:23:40 10° NNE 09:26:50 19° ENE 09:27:09 19° E visible
26 Jul 4.5 11:00:45 10° NNW 11:04:11 31° WNW 11:04:11 31° WNW visible
27 Jul 5.0 09:38:50 10° NNE 09:42:28 33° ENE 09:42:28 33° ENE visible
27 Jul 5.4 11:17:25 10° NW 11:19:30 17° WNW 11:19:30 17° WNW visible
28 Jul 4.4 09:54:25 10° N 09:57:50 49° NNE 09:57:50 49° NNE visible
29 Jul 4.5 10:10:15 10° NNW 10:13:12 40° NNW 10:13:12 40° NNW visible
30 Jul 6.0 08:49:33 10° NNE 08:51:35 16° ENE 08:51:35 16° ENE visible
30 Jul 5.1 10:26:23 10° NNW 10:28:36 25° NW 10:28:36 25° NW visible
31 Jul 5.6 09:04:37 10° NNE 09:06:59 24° NE 09:06:59 24° NE visible
31 Jul 5.8 10:42:56 10° NW 10:44:02 14° NW 10:44:02 14° NW visible
